Regional Weather Roundup
Issued by NWS

Home | Current Version | Previous Version | Text Only | Print | Product List | Glossary On
Versions: 1 2 3 4 5 6 7 8 9 10 11 12 13 14 15 16 17 18 19 20 21 22 23 24 25 26 27 28 29 30 31 32 33 34 35 36 37 38 39 40 41 42 43 44 45 46 47 48 49 50
000
ASUS46 KSEW 190110
RWRWA

WASHINGTON REGIONAL WEATHER ROUNDUP
NATIONAL WEATHER SERVICE SEATTLE WA
600 PM PDT THU SEP 18 2014

NOTE:"FAIR" INDICATES FEW OR NO CLOUDS BELOW 12,000 FEET WITH NO
SIGNIFICANT WEATHER AND/OR OBSTRUCTIONS TO VISIBILITY.

WAZ505-507>509-190200-
SEATTLE, TACOMA, EVERETT, AND VICINITY

CITY           SKY/WX    TMP DP  RH WIND       PRES   REMARKS
EVERETT        CLOUDY    60  57  89 CALM      29.89R
BOEING FIELD   CLOUDY    69  56  62 S8        29.88R
RENTON         CLOUDY    68  58  70 S9        29.88R
SEATAC AIRPORT CLOUDY    66  56  70 SW13      29.90R
JBLM-MCCHORD   CLOUDY    68  57  68 S10       29.90R
PUYALLUP       NOT AVBL
JBLM-FT LEWIS  CLOUDY    67  57  69 S9        29.90R
TACOMA NARROWS PTSUNNY   66  56  70 SW9G18    29.89R
$$

WAZ001-503-506-510-514-515-190200-
NORTH INTERIOR

CITY           SKY/WX    TMP DP  RH WIND       PRES   REMARKS
BELLINGHAM     CLOUDY    60  58  92 S8        29.86R
FRIDAY HARBOR  CLOUDY    63  57  81 SE5       29.88R
EASTSOUND      CLOUDY    61  57  88 S8        29.85R
PORT ANGELES     N/A     63  57  81 N3        29.87S
NAS WHIDBEY    LGT RAIN  65  59  81 SE8       29.87S
BURLINGTON     CLOUDY    63  61  94 S6        29.89R
$$

WAZ020-022-039-040-504-511-512-190200-
SOUTHWEST INTERIOR

CITY           SKY/WX    TMP DP  RH WIND       PRES   REMARKS
SHELTON        CLOUDY    65  57  75 SW13      29.88R
OLYMPIA        CLOUDY    67  56  67 W5        29.91R
CHEHALIS       CLOUDY    66  61  82 VRB3      29.92R
KELSO          CLOUDY    70  55  60 CALM      29.94R
VANCOUVER      CLOUDY    71  55  56 CALM      29.90R
SCAPPOOSE, OR  CLOUDY    71  58  63 CALM      29.89R
PORTLAND, OR   PTSUNNY   71  57  61 CALM      29.90R
$$

WAZ021-516-517-190200-
WASHINGTON COAST

CITY           SKY/WX    TMP DP  RH WIND       PRES   REMARKS
FORKS          CLOUDY    61  60  97 S8        29.89R FOG
HOQUIAM        CLOUDY    63  61  93 S10       29.91S
ASTORIA, OR    CLOUDY    63  58  83 SW8       29.92R
$$

WAZ019-023-024-040-518-519-190200-
CASCADE MOUNTAINS AND COLUMBIA GORGE

CITY           SKY/WX    TMP DP  RH WIND       PRES   REMARKS
STAMPEDE PASS  NOT AVBL
TROUTDALE, OR  PTSUNNY   72  57  59 CALM      29.89R
THE DALLES, OR PTSUNNY   73  53  49 NW16      29.83S
$$

WAZ026-027-041>044-520-521-190200-
EAST SLOPES

CITY           SKY/WX    TMP DP  RH WIND       PRES   REMARKS
OMAK           MOCLDY    75  50  41 N12       29.71R
WENATCHEE      CLOUDY    77  46  33 NW21      29.75R
ELLENSBURG     CLOUDY    68  51  54 NW25G31   29.82R
YAKIMA         CLOUDY    75  50  41 NW18G30   29.79R
$$

WAZ028-034-035-190200-
COLUMBIA BASIN

CITY           SKY/WX    TMP DP  RH WIND       PRES   REMARKS
EPHRATA        CLOUDY    78  45  30 W14       29.72R
MOSES LAKE     MOCLDY    76  49  38 SW13      29.73R
PASCO          PTCLDY    79  52  38 SW16      29.73R
HERMISTON, OR  PTCLDY    75  52  44 SW16G24   29.77R
$$

WAZ036>038-190200-
NORTHEAST WASHINGTON

CITY           SKY/WX    TMP DP  RH WIND       PRES   REMARKS
SPOKANE GEIGER MOCLDY    75  47  36 W22G28    29.75R
SPOKANE FELTS  MOCLDY    77  46  33 SW15G23   29.73S
FAIRCHILD AFB  MOCLDY    72  47  40 W18       29.76S
COEURDALENE,ID CLOUDY    75  45  33 W10       29.74R
DEER PARK      CLOUDY    75  47  36 SW10      29.74S
$$

WAZ029>033-190200-
SOUTHEAST WASHINGTON

CITY           SKY/WX    TMP DP  RH WIND       PRES   REMARKS
PULLMAN        CLOUDY    74  44  34 SW21G28   29.81S
LEWISTON, ID   MOCLDY    79  45  29 NW15G25   29.74R
WALLA WALLA    CLOUDY    77  50  38 W16       29.80R
PENDLETON, OR  CLOUDY    74  51  44 W21G26    29.81R
$$


USA.gov is the U.S. government's official web portal to all federal, state and local government web resources and services.